Retour au catalogue

CAS500-3

ActifScienceSSO
NORAD 66655·PAYLOAD·🇰🇷 South Korea

Lancé Nov 26, 2025 depuis Naro Space Center

Loading…

Prochains Passages (prochaines 24 heures)

TLE

FraisSource: Space-Track

Époque: Sep 14, 2026, 05:28 UTC

1 66655U 25274F   26257.22846318  .00000934  00000-0  10676-3 0  9993
2 66655  97.7426 183.2395 0003197 317.7924  42.3046 14.88322521 43393

Suivez CAS500-3 en temps réel avec AllMySat

Download on the App Store